sat.trackr.live / text

‹ back to catalog

STARLINK-36402

NORAD 68966 · 2026-099R

PAYLOAD ACTIVE UNKNOWN

§ Identity

Operator
Country
US
Launch date
2026-05-01
Launch site
AFETR
Launch vehicle
Mass (kg)
RCS (m²)

Purposes: comms

External: N2YO · Heavens-Above · Gunter

§ Orbital elements

Epoch: 2026-09-20T00:45:51.490080Z

Period
93.85 min
Inclination
53.1590°
Eccentricity
0.0000946
Mean motion
15.34401548 rev/d
Perigee alt
462.1 km
Apogee alt
463.3 km
Semi-major
6,840.8 km
B*
4.6535e-4
RAAN
77.9007°
Arg perigee
78.7183°
Mean anomaly
281.3926°
Rev number
2,183

§ Raw data

STARLINK-364021 68966U 26099R   26263.03184595  .00015380  00000+0  46535-3 0  99972 68966  53.1590  77.9007 0000946  78.7183 281.3926 15.34401548 21833

JSON: /api/v1/satellites/68966 · /tle

For live sub-satellite position, see the globe view (requires WebGL).

§ Visibility from observer

Set your observer location to see the next 7 days of passes ≥ 10°. The values pass through the URL so the page stays shareable.

No JS? Fill the form by hand. The geolocation button needs JavaScript.